Location: Bégole
(43.1574°N, 0.3291°E)
Time: 19:46:54
(UTC+00:00)

Daily predictions for brighter satellites

Satellite Brightness Start Highest point End
(mag) Time Altitude Azimuth Time Altitude Azimuth Time Altitude Azimuth
USA 215 3.7 17:24:45 10° SE 17:31:17 70° SW 17:37:50 10° NW
AQUARIUS 4.2 17:30:49 10° SSE 17:35:17 89° WSW 17:39:48 10° NNW
CZ-4B R/B 4.5 17:32:36 10° E 17:36:08 18° ENE 17:39:42 10° NNE
SJ-11-01 4.4 17:33:02 10° SSE 17:37:43 85° WSW 17:42:27 10° NNW
Cosmos 1455 Rocket 3.0 17:35:20 10° N 17:39:43 84° E 17:44:03 10° S
ATLAS CENTAUR R/B 2.6 17:36:27 10° S 17:40:39 32° ESE 17:44:45 10° NE
Cosmos 614 Rocket 4.1 17:35:33 10° SSW 17:40:47 83° WNW 17:46:01 10° NNE
SMAP 3.7 17:36:34 10° S 17:41:11 64° WSW 17:45:49 10° NNW
Cosmos 1867 3.7 17:37:46 10° NNW 17:43:09 55° NE 17:48:29 10° SE
Cosmos 407 Rocket 4.4 17:40:13 10° SSE 17:44:29 26° E 17:48:43 10° NE
NOSS 3-4 (A) 3.9 17:38:23 10° NNW 17:45:23 73° NE 17:53:20 10° SE
NOSS 3-4 (C) 3.9 17:38:29 10° NNW 17:45:29 72° NE 17:53:26 10° SE
NOAA 6 4.0 17:45:05 10° SSE 17:50:13 83° ENE 17:55:24 10° NNW
SKYMED 2 3.8 17:47:16 10° NNE 17:51:31 51° E 17:55:43 10° S
Tiangong -1.2 17:49:54 10° W 17:52:56 45° SSW 17:56:00 10° ESE
SL-4 R/B 1.8 17:51:54 10° WSW 17:55:20 70° NNW 17:58:33 13° NE
Meteor 2-17 Rocket 4.5 17:49:15 10° N 17:55:23 64° E 18:01:28 10° SSE
Cosmos 1340 Rocket 3.4 17:54:07 10° SSE 17:57:34 32° E 18:01:03 10° NNE
Cosmos 1408 3.6 17:55:33 10° SE 17:58:10 21° E 18:00:40 11° NE
USA 290 2.9 17:56:22 10° S 17:59:20 34° ESE 18:02:01 12° NE
ADEOS 4.1 17:55:41 10° S 18:00:50 64° WSW 18:06:03 10° NNW
BREEZE-M DEB (TANK) 2.6 17:59:46 10° W 18:02:43 67° N 18:07:22 15° ENE
PAYLOAD B 4.5 18:02:03 10° SE 18:07:18 46° ENE 18:12:33 10° N
Cosmos 1238 Rocket 3.9 18:03:38 10° NNW 18:08:13 66° W 18:13:39 10° S
YAOGAN 1 3.3 18:04:39 10° SE 18:08:27 31° ENE 18:12:17 10° N
Cosmos 2322 Rocket 3.6 18:05:19 10° SE 18:08:35 16° E 18:09:28 15° E
Cosmos 1607 3.9 18:03:44 10° SSW 18:09:47 68° ESE 18:15:55 10° NE
Cosmos 1140 Rocket 3.6 18:04:50 10° S 18:09:52 54° ESE 18:14:55 10° NNE
Cosmos 1703 3.6 18:07:04 10° SSW 18:10:51 67° W 18:14:40 10° N
NOSS 2-1 (E) 4.3 18:06:40 10° NNW 18:10:59 45° NE 18:17:01 10° ESE
Cosmos 1655 Rocket 4.0 18:04:55 10° N 18:11:08 62° E 18:17:18 10° SSE
Cosmos 2227 Rocket 3.9 18:08:30 10° NW 18:13:40 38° WSW 18:18:49 10° S
CZ-4 R/B 2.5 18:11:47 10° ESE 18:15:03 23° ENE 18:18:19 10° NNE
Cosmos 1536 Rocket 3.5 18:14:00 10° S 18:18:13 58° E 18:22:29 10° NNE
SL-16 R/B 3.0 18:13:47 10° SSE 18:18:33 29° ESE 18:21:31 18° ENE
Cosmos 1023 Rocket 4.4 18:14:24 10° S 18:19:32 69° ESE 18:24:39 10° NNE
COSMOS 2455 3.1 18:15:15 10° SW 18:21:15 74° WNW 18:27:18 10° NNE
CZ-4 R/B 4.5 18:19:22 10° S 18:23:28 83° WSW 18:27:36 10° NNW
Cosmos 2369 4.1 18:21:41 10° SW 18:27:16 63° WNW 18:32:55 10° NNE
Cosmos 44 3.9 18:23:37 10° SW 18:27:47 47° NW 18:32:00 11° NNE
Cosmos 1892 3.2 18:25:14 10° SSE 18:28:36 34° E 18:29:28 30° ENE
YAOGAN 3 4.5 18:24:33 10° SSE 18:28:54 82° ENE 18:33:16 10° N
Cosmos 2251 Rocket 3.7 18:28:12 10° SSW 18:33:31 79° WNW 18:38:56 10° NNE
Cosmos 1606 Rocket 4.1 18:30:54 10° N 18:34:49 33° ENE 18:35:44 30° E
Cosmos 1980 Rocket 3.0 18:33:08 10° SW 18:38:37 52° WNW 18:44:10 10° NNE
COSMO-SKYMED 1 3.6 18:35:21 10° N 18:39:32 48° WNW 18:43:42 10° SW
Meteor 1-11 4.4 18:36:05 10° SSE 18:41:38 49° E 18:47:13 10° NNE
Lacrosse 5 3.0 18:38:10 10° S 18:42:13 24° ESE 18:42:20 24° ESE
Spot 1 4.3 18:43:11 39° E 18:43:42 41° E 18:47:32 10° S
Cosmos 1328 3.8 18:39:50 10° S 18:43:50 84° W 18:47:50 10° N
BlueWalker 3 3.1 18:41:42 10° W 18:45:20 37° NNW 18:46:49 26° NNE
PSLV R/B 3.6 18:44:41 10° S 18:48:19 81° WSW 18:51:59 10° NNW
Lacrosse 5 rocket 3.6 18:48:13 10° N 18:48:24 10° N 18:48:24 10° N
Okean O Rocket 1.7 18:47:21 21° SE 18:50:03 50° ENE 18:54:19 10° N
Feng Yun 1-1 Rocket 4.3 18:47:34 10° SE 18:53:02 52° ENE 18:58:23 10° N
NOSS 2-1 (C) 4.2 18:54:03 10° NW 18:58:41 78° SW 19:05:19 10° SSE
Cosmos 2263 Rocket 2.7 18:53:59 10° NNW 18:59:28 59° WSW 19:04:54 10° S
Cosmos 1825 4.1 18:56:04 10° S 18:57:03 17° SSE 18:57:03 17° SSE
Cosmos 1553 Rocket 4.1 18:54:24 10° SSE 19:00:07 46° E 19:05:54 10° NNE
Timation 2 Rocket 3.9 18:53:59 10° NNW 19:00:12 87° WSW 19:06:40 10° SSE
MINOTAUR 4 R/B 4.2 18:59:27 38° N 19:00:36 68° WNW 19:03:59 10° SSW
BREEZE M DEB (TANK) 2.4 18:57:17 10° WNW 19:01:26 71° SW 19:01:26 71° SW
Cosmos 2228 3.4 19:00:10 10° NNW 19:04:22 63° W 19:08:31 10° S
Cosmos 1763 Rocket 3.6 19:01:06 10° N 19:05:58 49° ENE 19:05:58 49° ENE
NOSS 2-1 (D) 4.4 19:02:23 10° NW 19:07:00 67° SW 19:13:34 10° SSE
ISS -1.8 19:08:13 10° NW 19:09:56 23° NNW 19:09:56 23° NNW
IRIDIUM 106 4.3 19:07:35 10° N 19:18:04 - SSE 19:12:36 59° ENE
SL-08 R/B 4.5 19:08:09 10° N 19:14:16 57° ENE 19:17:35 28° SSE
CZ-4B R/B 3.4 19:10:52 10° S 19:16:08 67° WSW 19:21:30 10° NNW
Cosmos 676 Rocket 3.9 19:12:49 10° S 19:18:05 69° ESE 19:18:24 67° E
ATLAS CENTAUR R/B 3.0 19:14:47 10° WSW 19:19:08 36° NW 19:21:07 25° N
ATLAS 2AS CENTAUR R/B 2.7 19:13:27 10° NNW 19:20:24 60° NE 19:21:32 53° E
Cosmos 2227 4.4 19:16:55 10° NNW 19:22:41 72° WSW 19:27:19 16° SSE
Tiangong 0.8 19:27:31 10° WSW 19:28:46 14° SW 19:28:46 14° SW
Nadezhda 2 Rocket 4.4 19:23:18 10° N 19:29:33 84° W 19:35:41 10° S
Cosmos 2333 Rocket 4.5 19:26:19 10° SSE 19:26:23 10° SSE 19:26:23 10° SSE
Cosmos 1844 Rocket 3.3 19:27:08 10° NNW 19:31:00 41° N 19:31:00 41° N
SL-4 R/B 4.0 19:32:07 10° WNW 19:33:53 20° NW 19:33:53 20° NW
Cosmos 2360 Rocket 3.2 19:38:21 10° SSW 19:41:22 33° S 19:41:22 33° S
CZ-4 R/B 3.2 19:46:04 10° SSW 19:49:46 31° W 19:53:29 10° NNW
Cosmos 2322 Rocket 2.4 19:46:19 10° SSW 19:51:21 67° WSW 19:51:21 67° WSW
SL-16 R/B 3.2 19:57:02 10° SW 20:02:24 44° WNW 20:03:27 40° NNW
Lacrosse 5 4.0 20:19:45 10° WSW 20:21:35 22° WSW 20:21:35 22° WSW
Okean O Rocket 4.4 20:24:43 12° WSW 20:26:41 16° W 20:29:20 10° NW
ATLAS 2AS CENTAUR R/B 4.4 21:05:06 10° NW 21:09:01 26° W 21:09:01 26° W
